Regional Weather Roundup
Issued by NWS

Home | Current Version | Previous Version | Text Only | Print | Product List | Glossary On
Versions: 1 2 3 4 5 6 7 8 9 10 11 12 13 14 15 16 17 18 19 20 21 22 23 24 25 26 27 28 29 30 31 32 33 34 35 36 37 38 39 40 41 42 43 44 45 46 47 48 49 50
000
ASUS43 KLOT 281903
RWRIL

ILLINOIS REGIONAL WEATHER ROUNDUP
NATIONAL WEATHER SERVICE CHICAGO/ROMEOVILLE IL
200 PM CDT THU APR 28 2016

NOTE: "FAIR" INDICATES FEW OR NO CLOUDS BELOW 12,000 FEET WITH NO
SIGNIFICANT WEATHER AND/OR OBSTRUCTIONS TO VISIBILITY.

* THESE STATIONS ARE NOT UNDER NWS QUALITY CONTROL. THEY ALSO MAY NOT
  REPORT WEATHER SUCH AS PRECIPITATION OR FOG.

ILZ001-002-007-009-015-016-024-282000-
NORTHWEST ILLINOIS

CITY           SKY/WX    TMP DP  RH WIND       PRES   REMARKS
MOLINE         CLOUDY    53  49  86 E6        29.87R FOG
$$

ILZ003-004-008-010-011-017-018-282000-
NORTH CENTRAL ILLINOIS

CITY           SKY/WX    TMP DP  RH WIND       PRES   REMARKS
ROCKFORD       CLOUDY    50  41  71 NE8       29.92S
FREEPORT*      CLOUDY    48  43  82 E10       29.91S
ROCHELLE*      CLOUDY    51  46  83 E8        29.89S
DE KALB*       CLOUDY    50  45  81 E9        29.90R
$$

ILZ005-006-012>014-019>023-282000-
NORTHEAST ILLINOIS

CITY           SKY/WX    TMP DP  RH WIND       PRES   REMARKS
CHICAGO-OHARE  CLOUDY    48  41  76 E12       29.89F
CHICAGO-MIDWAY CLOUDY    51  43  74 NE12      29.89S
AURORA         CLOUDY    52  45  77 E7        29.90R HAZE
LANSING*       CLOUDY    50  45  82 NE9       29.88S
WAUKEGAN       CLOUDY    42  38  85 NE13      29.92S
DUPAGE AIRPORT CLOUDY    48  41  76 NE9       29.89R
WHEELING       CLOUDY    46  40  79 NE12      29.92S
NORTHERLY ISL    N/A     45  41  86 NE14        N/A
NORTHERLY ISL    N/A     45  41  86 NE14        N/A
$$

LMZ740>746-282000-
SOUTHERN LAKE MICHIGAN

STATION/POSITION SKY/WX   TEMP    WIND        PRES    VSBY  WAVE
                          AIR SEA DIR/SP/G                  HT/PER
                          (F)     (DEG/KT/KT) (MB)    (MI)  (FT/S)
SOUTHERN BUOY              40 40   70/ 12/ 16 1014.0          3/ 5
HARRISON CRIB              44      50/ 15/ 16   N/A
BURNHAM HARBOR             45      50/ 13       N/A
CALUMET HARBOR             45      10/ 12/ 15 1011.7R
BURNS HARBOR               51      60/  9/ 11 1012.2F
MICHIGAN CITY              50     110/  3/  5   N/A
ST. JOSEPH                 49 47  100/  6/  8   N/A           2/ 6
$$

ILZ025>027-034>036-040-047-049-050-058-095>099-282000-
WEST-CENTRAL ILLINOIS

CITY           SKY/WX    TMP DP  RH WIND       PRES   REMARKS
QUINCY         CLOUDY    58  47  66 W10       29.90R
MACOMB*        CLOUDY    56  49  76 W18G24    29.92R
PITTSFIELD*    PTSUNNY   62  49  63 W13       29.90S
$$

ILZ028>032-037-038-041>044-048-051>054-059>061-282000-
CENTRAL ILLINOIS

CITY           SKY/WX    TMP DP  RH WIND       PRES   REMARKS
BLOOMINGTON    PTSUNNY   62  57  83 NE8       29.85S
DECATUR        MOSUNNY   70  52  52 W14       29.84S
PEORIA         CLOUDY    61  51  70 CALM      29.85S
SPRINGFIELD    PTSUNNY   66  52  60 W18       29.86R
TAYLORVILLE    NOT AVBL
$$

ILZ033-039-045-046-055>057-062-063-282000-
EAST-CENTRAL ILLINOIS

CITY           SKY/WX    TMP DP  RH WIND       PRES   REMARKS
CHAMPAIGN      PTSUNNY   66  55  67 NW7       29.83S
MATTOON        PTSUNNY   69  50  50 W8        29.83F
$$

ILZ079-100>102-282000-
SOUTHWEST ILLINOIS

CITY           SKY/WX    TMP DP  RH WIND       PRES   REMARKS
BELLEVILLE     MOSUNNY   71  51  49 W9G17     29.87R
CAHOKIA*       SUNNY     70  49  47 W13G21    29.89R
SPARTA*        SUNNY     71  50  47 W13G18    29.90R
$$

ILZ064>066-069>071-074>076-080>082-084>086-088>090-092>094-282000-
SOUTH-CENTRAL ILLINOIS

CITY           SKY/WX    TMP DP  RH WIND       PRES   REMARKS
CARBONDALE     SUNNY     73  49  42 W10G17    29.88R
EFFINGHAM*     PTSUNNY   70  55  57 S10G16    29.86S
MARION         MOSUNNY   75  48  38 W9        29.90R
MT. VERNON     SUNNY     73  52  46 SW9G21    29.88S
SALEM*         SUNNY     71  53  51 W12G25    29.88R
$$

ILZ067-068-072-073-078-083-087-091-282000-
SOUTHEAST ILLINOIS

CITY           SKY/WX    TMP DP  RH WIND       PRES   REMARKS
LAWRENCEVILLE  SUNNY     74  50  42 W13       29.85S
FLORA*         MOSUNNY   73  50  45 W9        29.86S
HARRISBURG*    SUNNY     74  53  47 W15       29.89R
ROBINSON*      PTSUNNY   72  53  51 W15G23    29.86R
$$

ABBREVIATIONS USED IN REMARKS
   TC - TEMPERATURE IN CELSIUS
  WCI - WIND CHILL INDEX
   HX - HEAT INDEX
  VSB - VISIBILITY
$$





USA.gov is the U.S. government's official web portal to all federal, state and local government web resources and services.